Location: Casilda
(33.0440°S, 61.1680°W)
Time: 15:47:01

ISS - Pass Details

Date: 15 March 2018
Orbit: 403 x 406 km, 51.6° (Epoch: 21 March)

Event Time Altitude Azimuth Distance (km) Brightness Sun altitude
Rises 19:51:20 0° 230° (SW) 2,350 1.1 -6.9°
Reaches altitude 10° 19:53:27 10° 234° (SW) 1,483 0.1 -7.3°
Maximum altitude 19:56:44 58° 313° (NW) 485 -3.2 -8.0°
Drops below altitude 10° 19:59:58 10° 33° (NNE) 1,466 -1.4 -8.7°
Enters shadow 20:01:06 - 35° (NE) 1,926 -0.8 -8.9°
